Location: Newport
(44.6370°N, 124.0520°W)
Time: 22:57:03
(UTC-07:00)

OTV 5 (USA 277) - Pass Details

Date: 10 October 2017
Orbit: 404 x 417 km, 43.0° (Epoch: 07 September)

Event Time Altitude Azimuth Distance (km) Brightness Sun altitude
Rises 19:48:27 0° 225° (SW) 2,346 ? -13.0°
Reaches altitude 10° 19:50:47 10° 211° (SSW) 1,486 ? -13.4°
Maximum altitude 19:53:35 24° 155° (SSE) 898 ? -13.9°
Enters shadow 19:54:23 22° 131° (SE) 962 ? -14.1°
